User: anonymous   Login
Location: Unspecified
(0.0000°N, 0.0000°E)
Time: 13:52:52
(UTC+00:00)
Language:

Skynet 4D - Orbit

View from above orbital plane
View from above orbital plane
View from above satellite
View from above satellite

Ground track
Ground track

The orbit data is extracted from the following two-line orbital elements,

1 25134U 98002A   17324.14910435 -.00000094  00000-0  00000+0 0  9991
2 25134  10.6758  30.1195 0002488 176.7455 184.7572  0.99151359 72397
Epoch (UTC): 20 November 2017 03:34:42
Eccentricity: 0.0002488
inclination: 10.6758°
perigee height: 36092 km
apogee height: 36114 km
right ascension of ascending node: 30.1195°
argument of perigee: 176.7455°
revolutions per day: 0.99151359
mean anomaly at epoch: 184.7572°
orbit number at epoch: 7239

The dashed part of the orbit path shows where the satellite is in the earth's shadow,  

DLR